Selinsgrove, PA

8:55 PM EST on November 19, 2019 (GMT -0500)
Penn Valley

Weather History for KSEG - June, 2019

Change the Weather History Date:

Saturday, June 8, 2019

  Actual Average (KIPT) Record (KIPT)
Temperature  
Mean Temperature 68 °F -  
Max Temperature 82 °F 75 °F 98 °F (1933)
Min Temperature 54 °F 53 °F 38 °F (1932)
Cooling Degree Days 3    
Growing Degree Days 18 (Base 50)    
Moisture  
Dew Point 53 °F    
Average Humidity 62    
Maximum Humidity 93    
Minimum Humidity 36    
Precipitation  
Precipitation 0.00 in - - ()
Sea Level Pressure  
Sea Level Pressure 30.12 in    
Wind  
Wind Speed 5 mph (ENE)    
Max Wind Speed 9 mph    
Max Gust Speed -    
Visibility 10 miles    
Events      
Averages and records for this station are not official NWS values.
T = Trace of Precipitation, MM = Missing Value Source: NWS Daily Summary

Daily Weather History Graph

Daily Weather History Graph

Search for Another Location

Airport or City:

Astronomy

Jun. 08, 2019 Rise Set
Actual Time 5:35 AM EDT 8:37 PM EDT
Civil Twilight 5:02 AM EDT 9:10 PM EDT
Nautical Twilight 4:20 AM EDT 9:52 PM EDT
Astronomical Twilight 3:31 AM EDT 10:42 PM EDT
Moon 11:02 AM EDT (6/8) 12:36 AM EDT (6/8)
Length of Visible Light 16h 07m
Length of Day
15h 01m
Waxing Crescent, 32% of the Moon is Illuminated
Jun 8
Waxing Crescent
Jun 10
First Quarter
Jun 17
Full
Jun 25
Last Quarter
Jul 2
New

Hourly Weather History & Observations

Time (EDT) Temp. Heat Index Dew Point Humidity Pressure Visibility Wind Dir Wind Speed Gust Speed Precip Events Conditions
12:53 AM 57.0 °F - 55.0 °F 93% 30.04 in 10.0 mi NW 3.5 mph - N/A   Clear
1:53 AM 55.9 °F - 54.0 °F 93% 30.04 in 10.0 mi NW 4.6 mph - N/A   Clear
2:53 AM 55.9 °F - 54.0 °F 93% 30.04 in 10.0 mi NW 3.5 mph - N/A   Clear
3:53 AM 55.0 °F - 53.1 °F 93% 30.06 in 10.0 mi NNW 4.6 mph - N/A   Clear
4:53 AM 55.0 °F - 53.1 °F 93% 30.09 in 10.0 mi NW 3.5 mph - N/A   Clear
5:53 AM 54.0 °F - 52.0 °F 93% 30.11 in 7.0 mi Calm Calm - N/A   Clear
6:53 AM 57.0 °F - 54.0 °F 89% 30.12 in 10.0 mi North 3.5 mph - N/A   Clear
7:53 AM 62.1 °F - 55.9 °F 80% 30.12 in 10.0 mi Calm Calm - N/A   Clear
8:53 AM 66.9 °F - 54.0 °F 63% 30.13 in 10.0 mi North 6.9 mph - N/A   Clear
9:53 AM 70.0 °F - 54.0 °F 57% 30.14 in 10.0 mi North 6.9 mph - N/A   Clear
10:53 AM 73.0 °F - 54.0 °F 51% 30.15 in 10.0 mi NNE 5.8 mph - N/A   Clear
11:53 AM 75.9 °F - 54.0 °F 46% 30.14 in 10.0 mi NE 6.9 mph - N/A   Clear
12:53 PM 78.1 °F - 51.1 °F 39% 30.14 in 10.0 mi ESE 6.9 mph - N/A   Clear
1:53 PM 80.1 °F 79.9 °F 53.1 °F 39% 30.13 in 10.0 mi East 9.2 mph - N/A   Clear
2:53 PM 81.0 °F - 52.0 °F 36% 30.13 in 10.0 mi East 6.9 mph - N/A   Clear
3:53 PM 82.0 °F 81.2 °F 53.1 °F 37% 30.12 in 10.0 mi SE 9.2 mph - N/A   Clear
4:53 PM 82.0 °F 81.2 °F 53.1 °F 37% 30.12 in 10.0 mi SSE 9.2 mph - N/A   Clear
5:53 PM 80.1 °F - 52.0 °F 38% 30.13 in 10.0 mi SE 6.9 mph - N/A   Clear
6:53 PM 79.0 °F - 53.1 °F 40% 30.14 in 10.0 mi SE 8.1 mph - N/A   Clear
7:53 PM 75.9 °F - 53.1 °F 45% 30.14 in 10.0 mi ESE 5.8 mph - N/A   Clear
8:53 PM 71.1 °F - 54.0 °F 55% 30.15 in 10.0 mi ESE 3.5 mph - N/A   Clear
9:53 PM 70.0 °F - 53.1 °F 55% 30.17 in 10.0 mi SE 6.9 mph - N/A   Clear
10:53 PM 66.9 °F - 53.1 °F 61% 30.19 in 10.0 mi ESE 5.8 mph - N/A   Clear
11:53 PM 66.9 °F - 51.1 °F 57% 30.19 in 10.0 mi Calm Calm - N/A   Clear